Tracking 19563 objects as of 20-Mar-2019
HD Live streaming from Space Station
objects crossing your sky now

FENGYUN 1C DEB

Track FENGYUN 1C DEB now!
10-day predictions


NORAD ID: 30420
Int'l Code: 1999-025AEK
Perigee: 534.4 km
Apogee: 764.4 km
Inclination: 98.9 °
Period: 97.6 minutes
Semi major axis: 7020 km
RCS: 0.046 m2 (small)
Launch date: May 10, 1999
Source: People's Republic of China (PRC)
Launch site: Taiyaun Space Center, China (TSC)

Note: This is SATELLITE DEBRIS
aabbcc
Your satellite tracking list
Your tracking list is empty




NASA's NSSDC Master Catalog

Two Line Element Set (TLE):
1 30420U 99025AEK 19078.73736369  .00000458  00000-0  62714-4 0  9994
2 30420  98.9171 165.9366 0163786 319.7924 191.9944 14.75917520649690
Source of the keplerian elements: AFSPC